Regional Weather Roundup
Issued by NWS

Home | Current Version | Previous Version | Text Only | Print | Product List | Glossary Off
Versions: 1 2 3 4 5 6 7 8 9 10 11 12 13 14 15 16 17 18 19 20 21 22 23 24 25 26 27 28 29 30 31 32 33 34 35 36 37 38 39 40 41 42 43 44 45 46 47 48 49 50

000
ASUS45 KABQ 010710
RWRNM
WEATHER ROUNDUP FOR NEW MEXICO
NATIONAL WEATHER SERVICE ALBUQUERQUE NM
100 AM MDT WED OCT 01 2014

NOTE: "FAIR" MEANS FEW OR NO CLOUDS BELOW 12,000 FEET AGL WITH NO
       SIGNIFICANT WEATHER OR OBSTRUCTIONS TO VISION.

      THIS PRODUCT IS RELEASED AS TWO VERSIONS.  ONE VERSION NEAR
      THE TOP OF THE HOUR CONTAINING PRELIMINARY DATA FROM ALBUQUERQUE
      AND OTHER STATIONS.  A FINAL VERSION WITH ADDITIONAL DATA IS
      ISSUED ABOUT 10 MINUTES AFTER THE HOUR.

NMZ501-503-504-510>518-010800-
NORTHWEST PLATEAU/NORTHCENTRAL MOUNTAINS

CITY           SKY/WX    TMP DP  RH WIND       PRES   REMARKS
FARMINGTON     CLEAR     47  41  80 NE7       29.96S
LOS ALAMOS     CLEAR     50  32  48 CALM      30.04F
SANTA FE       CLEAR     50  31  48 N13       29.98F
TAOS           CLEAR     39  30  70 CALM      30.04F
ANGEL FIRE     FAIR      36  28  75 SW6       30.08S WCI  31

$$
NMZ402-403-502-505>509-010800-
WESTCENTRAL MOUNTAINS/SOUTHWEST MOUNTAINS

CITY           SKY/WX    TMP DP  RH WIND       PRES   REMARKS
GALLUP         CLEAR     43  38  82 CALM      30.01S
GRANTS         CLEAR     43  34  70 CALM      30.03S

$$
NMZ407-409-411-412-010800-
SOUTHERN DESERTS

CITY           SKY/WX    TMP DP  RH WIND       PRES   REMARKS
LORDSBURG      FAIR      55  36  47 MISG      29.94S
DEMING         CLEAR     60  37  42 W10       29.93S
LAS CRUCES     CLEAR     58  34  39 W3        29.94S
HOLLOMAN AFB   PTCLDY    62  39  42 SE7       29.87S
ALAMOGORDO     PTCLDY    57  41  54 SE10      29.89F
T OR C         CLEAR     63  36  36 NW9       29.92S

$$
NMZ519>523-010800-
CENTRAL VALLEYS/CENTRAL HIGHLANDS

CITY           SKY/WX    TMP DP  RH WIND       PRES   REMARKS
ALBUQUERQUE    CLEAR     54  33  45 E6        29.96S
DOUBLE EAGLE   CLEAR     48  32  53 NW5       29.99R
MORIARTY ARPT  FAIR      41  32  70 CALM      30.01S
CLINES CORNERS CLEAR     44  32  62 NW8       30.01S
BELEN          NOT AVBL
SOCORRO        FAIR      60  35  39 N7        29.93S

$$
NMZ524>526-539-540-010800-
SOUTHCENTRAL MOUNTAINS

CITY           SKY/WX    TMP DP  RH WIND       PRES   REMARKS
RUIDOSO        NOT AVBL

$$
NMZ527>531-010800-
NORTHEAST HIGHLANDS/NORTHEAST PLAINS

CITY           SKY/WX    TMP DP  RH WIND       PRES   REMARKS
LAS VEGAS      PTCLDY    47  30  51 E8        30.00S
RATON          CLEAR     48  35  60 N5        29.94S
CLAYTON        CLEAR     56  38  50 W14       29.83R

$$
NMZ532>537-010800-
EASTCENTRAL PLAINS

CITY           SKY/WX    TMP DP  RH WIND       PRES   REMARKS
TUCUMCARI      CLEAR     60  41  49 W10       29.82S
CANNON AFB     CLEAR     63  42  47 W10       29.85S
CLOVIS AIRPORT   N/A     57  46  67 W10       29.87S

$$
NMZ028-029-538-010800-
SOUTHEAST PLAINS

CITY           SKY/WX    TMP DP  RH WIND       PRES   REMARKS
ROSWELL        CLEAR     62  47  57 W12       29.82F
CARLSBAD       CLEAR     63  53  70 SW12      29.82S
HOBBS          CLEAR     61  54  77 S6        29.86S


$$


USA.gov is the U.S. government's official web portal to all federal, state and local government web resources and services.